This is the latest recevied weather packets stored in our database for station/object KC5EZZ-2. If no packets are shown the sender has not sent any weather packets the latest 10 day(s).
| Time | Temp. | Humidity | Pressure | Rain* | Wind** | Luminosity | Snow |
|---|---|---|---|---|---|---|---|
| 1777951661 | 24.44° C | - | - | 0 mm | 5.36 m/s, 186° | - | - |
| 1777951361 | 24.44° C | - | - | 0 mm | 5.36 m/s, 160° | - | - |
| 1777951062 | 24.44° C | - | - | 0 mm | 4.92 m/s, 184° | - | - |
| 1777950759 | 24.44° C | - | - | 0 mm | 5.36 m/s, 172° | - | - |
| 1777950460 | 25° C | - | - | 0 mm | 4.92 m/s, 158° | - | - |
| 1777950160 | 25° C | - | - | 0 mm | 4.02 m/s, 193° | - | - |
| 1777949858 | 25° C | - | - | 0 mm | 3.58 m/s, 146° | - | - |
| 1777949558 | 25° C | - | - | 0 mm | 4.47 m/s, 191° | - | - |
| 1777949259 | 25° C | - | - | 0 mm | 5.81 m/s, 184° | - | - |
| 1777948956 | 25° C | - | - | 0 mm | 4.02 m/s, 174° | - | - |
| 1777948657 | 25° C | - | - | 0 mm | 4.47 m/s, 190° | - | - |
| 1777948357 | 25.56° C | - | - | 0 mm | 4.47 m/s, 167° | - | - |
| 1777948055 | 25.56° C | - | - | 0 mm | 4.02 m/s, 190° | - | - |
| 1777947755 | 25.56° C | - | - | 0 mm | 4.47 m/s, 176° | - | - |
| 1777947455 | 25.56° C | - | - | 0 mm | 6.26 m/s, 148° | - | - |
| 1777947153 | 26.11° C | - | - | 0 mm | 4.47 m/s, 173° | - | - |
| 1777946853 | 26.11° C | - | - | 0 mm | 4.47 m/s, 155° | - | - |
| 1777946554 | 26.11° C | - | - | 0 mm | 5.36 m/s, 162° | - | - |
| 1777946251 | 26.11° C | - | - | 0 mm | 4.02 m/s, 174° | - | - |
| 1777945952 | 26.11° C | - | - | 0 mm | 3.58 m/s, 158° | - | - |
| 1777945652 | 26.67° C | - | - | 0 mm | 4.47 m/s, 172° | - | - |
| 1777945350 | 26.67° C | - | - | 0 mm | 4.47 m/s, 177° | - | - |
| 1777945050 | 26.67° C | - | - | 0 mm | 3.58 m/s, 177° | - | - |
| 1777944751 | 26.67° C | - | - | 0 mm | 3.58 m/s, 169° | - | - |
| 1777944448 | 26.67° C | - | - | 0 mm | 4.02 m/s, 143° | - | - |
* Rain latest hour (hover to see other rain measurements)
** Current wind speed in m/s (hover to see current wind gust speed)